Location: Palomar Mountain Lodge
(33.3110°N, 116.8495°W)
Time: 06:09:42
(UTC-07:00)

Meteor 2-9 Rocket - Pass Details

Date: 19 May 2017
Orbit: 791 x 896 km, 81.3° (Epoch: 28 May)

Event Time Altitude Azimuth Distance (km) Brightness Sun altitude
Rises 22:28:18 0° 348° (NNW) 3,324 8.3 -27.6°
Reaches altitude 10° 22:30:40 10° 346° (NNW) 2,402 7.4 -27.9°
Maximum altitude 22:36:03 68° 264° (W) 890 4.3 -28.6°
Enters shadow 22:36:10 67° 256° (WSW) 892 4.2 -28.6°
